FW8580 Weather Reports


time (UTC)temp
C
wind
direction
speed
KPH
gust
KPH
rain 1hr
cm
rain 24hr
cm
rain mn
cm
humidity
%
barometer
mb
20260504050002 8 114 0.0 1.6 0.00 0.00 0.00 51 1016.3
20260504044459 8 2 0.0 1.6 0.00 0.00 0.00 49 1016.2
20260504043000 8 53 0.0 1.6 0.00 0.00 0.00 49 1015.9
20260504042021 8 196 0.0 1.6 0.00 0.00 0.00 48 1015.9
20260504031501 8 48 0.0 1.6 0.00 0.00 0.00 48 1016.4
20260504030000 8 308 0.0 1.6 0.00 0.00 0.00 47 1016.3
20260504024502 8 328 0.0 1.6 0.00 0.00 0.00 47 1016.4
20260504021459 9 335 0.0 0.0 0.00 0.00 0.00 45 1016.3
20260504020000 9 357 0.0 1.6 0.00 0.00 0.00 43 1016.1
20260504014458 9 91 0.0 1.6 0.00 0.00 0.00 42 1016.1
20260504013000 10 227 0.0 1.6 0.00 0.00 0.00 42 1015.9
20260504011459 10 232 0.0 1.6 0.00 0.00 0.00 41 1015.7
20260504005959 10 210 0.0 1.6 0.00 0.00 0.00 40 1015.7
20260504004502 10 178 0.0 1.6 0.00 0.00 0.00 39 1015.6
20260504002959 10 217 0.0 0.0 0.00 0.00 0.00 38 1015.3
20260504001504 11 243 0.0 0.0 0.00 0.00 0.00 36 1015.4
20260504000002 12 9 0.0 0.0 0.00 0.00 0.00 34 1015.5
20260503232959 12 330 0.0 0.0 0.00 0.00 0.00 32 1015.4
20260503231459 13 236 0.0 1.6 0.00 0.00 0.00 31 1015.3
20260503230002 13 329 0.0 1.6 0.00 0.00 0.00 33 1015.1
20260503224458 13 225 0.0 1.6 0.00 0.00 0.00 32 1015.1
20260503223001 15 326 1.6 4.8 0.00 0.00 0.00 30 1015.3
20260503221507 15 248 0.0 9.7 0.00 0.00 0.00 30 1015.3
20260503215958 16 19 0.0 4.8 0.00 0.00 0.00 30 1015.2
20260503212959 14 230 0.0 9.7 0.00 0.00 0.00 31 1015.6
20260503211458 15 143 0.0 4.8 0.00 0.00 0.00 32 1015.7
20260503210002 15 251 0.0 3.2 0.00 0.00 0.00 32 1015.7
20260503204458 14 224 0.0 12.9 0.00 0.00 0.00 34 1015.6
20260503195959 13 234 0.0 11.3 0.00 0.00 0.00 34 1016.1
20260503194457 13 233 0.0 6.4 0.00 0.00 0.00 30 1016.2
20260503193009 13 127 0.0 6.4 0.00 0.00 0.00 37 1016.4
20260503191500 12 235 0.0 9.7 0.00 0.00 0.00 40 1016.4
20260503190001 11 240 3.2 14.5 0.00 0.00 0.00 37 1016.5
20260503184459 11 151 1.6 16.1 0.00 0.00 0.00 38 1017.0
20260503182959 12 13 1.6 4.8 0.00 0.00 0.00 38 1017.2
20260503181459 10 313 3.2 12.9 0.00 0.00 0.00 40 1017.3
20260503175958 11 49 3.2 11.3 0.00 0.00 0.00 40 1017.4
20260503172959 9 155 3.2 14.5 0.00 0.00 0.00 44 1017.4
20260503171501 8 263 1.6 14.5 0.00 0.00 0.00 45 1017.7